| time (UTC) | temp F | wind direction | speed MPH | gust MPH | rain 1hr in | rain 24hr in | rain mn in | humidity % | barometer mb |
| 20260831110022 | 77 | 175 | 2.0 | 8.0 | 0.00 | 0.00 | 0.00 | 64 | 1015.4 |
| 20260831105508 | 77 | 206 | 2.0 | 8.0 | 0.00 | 0.00 | 0.00 | 63 | 1015.4 |
| 20260831105015 | 77 | 190 | 3.0 | 8.0 | 0.00 | 0.00 | 0.00 | 63 | 1015.4 |
| 20260831104556 | 77 | 173 | 3.0 | 7.0 | 0.00 | 0.00 | 0.00 | 63 | 1015.4 |
| 20260831104021 | 77 | 168 | 3.0 | 7.0 | 0.00 | 0.00 | 0.00 | 63 | 1015.4 |
| 20260831103521 | 77 | 165 | 1.0 | 7.0 | 0.00 | 0.00 | 0.00 | 62 | 1015.4 |
| 20260831103015 | 77 | 172 | 2.0 | 7.0 | 0.00 | 0.00 | 0.00 | 62 | 1015.3 |
| 20260831102516 | 77 | 167 | 3.0 | 7.0 | 0.00 | 0.00 | 0.00 | 62 | 1015.3 |
| 20260831102013 | 77 | 175 | 3.0 | 7.0 | 0.00 | 0.00 | 0.00 | 62 | 1015.3 |
| 20260831101511 | 78 | 179 | 3.0 | 9.0 | 0.00 | 0.00 | 0.00 | 62 | 1015.2 |
| 20260831101017 | 78 | 202 | 2.0 | 10.0 | 0.00 | 0.00 | 0.00 | 62 | 1015.2 |
| 20260831100516 | 78 | 190 | 3.0 | 10.0 | 0.00 | 0.00 | 0.00 | 62 | 1015.1 |
| 20260831100033 | 78 | 171 | 4.0 | 10.0 | 0.00 | 0.00 | 0.00 | 61 | 1015.1 |
| 20260831095515 | 78 | 196 | 4.0 | 9.0 | 0.00 | 0.00 | 0.00 | 61 | 1015.1 |
| 20260831095010 | 78 | 180 | 3.0 | 9.0 | 0.00 | 0.00 | 0.00 | 61 | 1015.1 |
| 20260831094533 | 78 | 167 | 3.0 | 9.0 | 0.00 | 0.00 | 0.00 | 61 | 1015.1 |
| 20260831094015 | 78 | 179 | 4.0 | 9.0 | 0.00 | 0.00 | 0.00 | 61 | 1015.0 |
| 20260831093513 | 78 | 203 | 2.0 | 9.0 | 0.00 | 0.00 | 0.00 | 61 | 1015.1 |
| 20260831093040 | 78 | 154 | 4.0 | 8.0 | 0.00 | 0.00 | 0.00 | 61 | 1015.1 |
| 20260831092515 | 78 | 160 | 2.0 | 8.0 | 0.00 | 0.00 | 0.00 | 60 | 1014.9 |
| 20260831092017 | 78 | 184 | 3.0 | 7.0 | 0.00 | 0.00 | 0.00 | 60 | 1014.8 |
| 20260831091508 | 78 | 188 | 2.0 | 8.0 | 0.00 | 0.00 | 0.00 | 60 | 1014.9 |
| 20260831091011 | 79 | 173 | 3.0 | 8.0 | 0.00 | 0.00 | 0.00 | 60 | 1014.9 |
| 20260831090506 | 79 | 209 | 2.0 | 7.0 | 0.00 | 0.00 | 0.00 | 60 | 1015.0 |
| 20260831090003 | 79 | 182 | 3.0 | 10.0 | 0.00 | 0.00 | 0.00 | 60 | 1014.9 |
| 20260831085508 | 79 | 173 | 3.0 | 10.0 | 0.00 | 0.00 | 0.00 | 59 | 1014.8 |
| 20260831085007 | 79 | 175 | 3.0 | 10.0 | 0.00 | 0.00 | 0.00 | 59 | 1014.7 |
| 20260831084502 | 79 | 167 | 3.0 | 7.0 | 0.00 | 0.00 | 0.00 | 59 | 1014.6 |
| 20260831084006 | 79 | 164 | 2.0 | 8.0 | 0.00 | 0.00 | 0.00 | 59 | 1014.7 |
| 20260831083502 | 79 | 177 | 4.0 | 8.0 | 0.00 | 0.00 | 0.00 | 59 | 1014.7 |
| 20260831083018 | 79 | 162 | 4.0 | 8.0 | 0.00 | 0.00 | 0.00 | 59 | 1014.6 |
| 20260831082505 | 79 | 172 | 2.0 | 9.0 | 0.00 | 0.00 | 0.00 | 59 | 1014.6 |
| 20260831082002 | 79 | 181 | 3.0 | 9.0 | 0.00 | 0.00 | 0.00 | 58 | 1014.6 |
| 20260831081515 | 80 | 163 | 3.0 | 8.0 | 0.00 | 0.00 | 0.00 | 58 | 1014.6 |
| 20260831081004 | 80 | 171 | 3.0 | 8.0 | 0.00 | 0.00 | 0.00 | 58 | 1014.6 |
| 20260831080503 | 80 | 176 | 3.0 | 11.0 | 0.00 | 0.00 | 0.00 | 57 | 1014.6 |
| 20260831080013 | 80 | 179 | 3.0 | 11.0 | 0.00 | 0.00 | 0.00 | 57 | 1014.7 |
| 20260831075502 | 80 | 176 | 4.0 | 8.0 | 0.00 | 0.00 | 0.00 | 57 | 1014.7 |
| 20260831075012 | 80 | 214 | 4.0 | 13.0 | 0.00 | 0.00 | 0.00 | 57 | 1014.7 |
| 20260831074512 | 80 | 183 | 3.0 | 13.0 | 0.00 | 0.00 | 0.00 | 57 | 1014.7 |
| 20260831074002 | 80 | 177 | 3.0 | 9.0 | 0.00 | 0.00 | 0.00 | 57 | 1014.7 |
| 20260831073512 | 80 | 162 | 4.0 | 9.0 | 0.00 | 0.00 | 0.00 | 56 | 1014.9 |
| 20260831073009 | 80 | 196 | 4.0 | 10.0 | 0.00 | 0.00 | 0.00 | 56 | 1014.9 |
| 20260831072514 | 80 | 196 | 4.0 | 10.0 | 0.00 | 0.00 | 0.00 | 56 | 1014.8 |
| 20260831072010 | 81 | 215 | 3.0 | 10.0 | 0.00 | 0.00 | 0.00 | 56 | 1014.7 |
| 20260831071524 | 81 | 173 | 4.0 | 10.0 | 0.00 | 0.00 | 0.00 | 56 | 1014.7 |
| 20260831071014 | 81 | 167 | 3.0 | 8.0 | 0.00 | 0.00 | 0.00 | 55 | 1014.6 |
| 20260831070506 | 81 | 176 | 2.0 | 12.0 | 0.00 | 0.00 | 0.00 | 55 | 1014.6 |
| 20260831070004 | 81 | 183 | 5.0 | 11.0 | 0.00 | 0.00 | 0.00 | 55 | 1014.6 |
| 20260831065508 | 82 | 170 | 4.0 | 10.0 | 0.00 | 0.00 | 0.00 | 54 | 1014.5 |
| 20260831065008 | 82 | 191 | 3.0 | 10.0 | 0.00 | 0.00 | 0.00 | 54 | 1014.6 |
| 20260831064528 | 82 | 171 | 6.0 | 13.0 | 0.00 | 0.00 | 0.00 | 54 | 1014.6 |
| 20260831064007 | 82 | 167 | 4.0 | 13.0 | 0.00 | 0.00 | 0.00 | 54 | 1014.6 |
| 20260831063503 | 82 | 164 | 3.0 | 11.0 | 0.00 | 0.00 | 0.00 | 53 | 1014.5 |
| 20260831063025 | 83 | 175 | 5.0 | 11.0 | 0.00 | 0.00 | 0.00 | 53 | 1014.5 |
| 20260831062509 | 83 | 166 | 5.0 | 10.0 | 0.00 | 0.00 | 0.00 | 52 | 1014.5 |
| 20260831062003 | 83 | 173 | 4.0 | 12.0 | 0.00 | 0.00 | 0.00 | 52 | 1014.6 |
| 20260831061519 | 83 | 214 | 4.0 | 14.0 | 0.00 | 0.00 | 0.00 | 52 | 1014.5 |
| 20260831061006 | 83 | 198 | 4.0 | 14.0 | 0.00 | 0.00 | 0.00 | 52 | 1014.5 |
| 20260831060515 | 83 | 179 | 8.0 | 14.0 | 0.00 | 0.00 | 0.00 | 52 | 1014.5 |
| 20260831060016 | 83 | 158 | 6.0 | 12.0 | 0.00 | 0.00 | 0.00 | 52 | 1014.5 |
| 20260831055505 | 83 | 191 | 6.0 | 10.0 | 0.00 | 0.00 | 0.00 | 51 | 1014.5 |
| 20260831055016 | 83 | 148 | 5.0 | 10.0 | 0.00 | 0.00 | 0.00 | 51 | 1014.4 |
| 20260831054515 | 83 | 173 | 3.0 | 8.0 | 0.00 | 0.00 | 0.00 | 51 | 1014.3 |
| 20260831054006 | 83 | 180 | 5.0 | 8.0 | 0.00 | 0.00 | 0.00 | 51 | 1014.2 |
| 20260831053514 | 83 | 167 | 3.0 | 9.0 | 0.00 | 0.00 | 0.00 | 50 | 1014.2 |
| 20260831053035 | 83 | 154 | 3.0 | 9.0 | 0.00 | 0.00 | 0.00 | 50 | 1014.2 |
| 20260831052513 | 83 | 183 | 2.0 | 6.0 | 0.00 | 0.00 | 0.00 | 50 | 1014.2 |
| 20260831052013 | 83 | 164 | 3.0 | 7.0 | 0.00 | 0.00 | 0.00 | 51 | 1014.2 |
| 20260831051508 | 83 | 194 | 3.0 | 7.0 | 0.00 | 0.00 | 0.00 | 51 | 1014.1 |
| 20260831051015 | 84 | 175 | 2.0 | 5.0 | 0.00 | 0.00 | 0.00 | 50 | 1014.1 |
| 20260831050517 | 84 | 169 | 2.0 | 5.0 | 0.00 | 0.00 | 0.00 | 50 | 1014.0 |
| 20260831050007 | 84 | 139 | 3.0 | 4.0 | 0.00 | 0.00 | 0.00 | 50 | 1014.0 |
| 20260831045512 | 85 | 181 | 1.0 | 3.0 | 0.00 | 0.00 | 0.00 | 49 | 1013.9 |
| 20260831045007 | 85 | 184 | 1.0 | 2.0 | 0.00 | 0.00 | 0.00 | 48 | 1013.8 |
| 20260831044531 | 85 | 183 | 1.0 | 6.0 | 0.00 | 0.00 | 0.00 | 48 | 1013.9 |
| 20260831044012 | 85 | 183 | 1.0 | 6.0 | 0.00 | 0.00 | 0.00 | 48 | 1013.8 |
| 20260831043506 | 85 | 161 | 1.0 | 4.0 | 0.00 | 0.00 | 0.00 | 48 | 1013.8 |
| 20260831043030 | 85 | 175 | 1.0 | 4.0 | 0.00 | 0.00 | 0.00 | 48 | 1013.8 |
| 20260831042511 | 85 | 197 | 1.0 | 4.0 | 0.00 | 0.00 | 0.00 | 48 | 1013.8 |
| 20260831042004 | 85 | 206 | 1.0 | 3.0 | 0.00 | 0.00 | 0.00 | 47 | 1013.7 |
| 20260831041524 | 85 | 206 | 0.0 | 3.0 | 0.00 | 0.00 | 0.00 | 47 | 1013.7 |
| 20260831041014 | 85 | 200 | 1.0 | 3.0 | 0.00 | 0.00 | 0.00 | 47 | 1013.7 |
| 20260831040515 | 86 | 169 | 2.0 | 3.0 | 0.00 | 0.00 | 0.00 | 46 | 1013.7 |
| 20260831040024 | 86 | 178 | 0.0 | 2.0 | 0.00 | 0.00 | 0.00 | 46 | 1013.7 |
| 20260831035507 | 86 | 177 | 0.0 | 3.0 | 0.00 | 0.00 | 0.00 | 46 | 1013.6 |
| 20260831035015 | 86 | 177 | 1.0 | 3.0 | 0.00 | 0.00 | 0.00 | 45 | 1013.7 |
| 20260831034519 | 86 | 173 | 1.0 | 3.0 | 0.00 | 0.00 | 0.00 | 45 | 1013.7 |
| 20260831034006 | 86 | 173 | 1.0 | 4.0 | 0.00 | 0.00 | 0.00 | 45 | 1013.7 |
| 20260831033513 | 86 | 171 | 2.0 | 4.0 | 0.00 | 0.00 | 0.00 | 45 | 1013.7 |
| 20260831033014 | 86 | 176 | 1.0 | 4.0 | 0.00 | 0.00 | 0.00 | 45 | 1013.6 |
| 20260831032519 | 86 | 175 | 2.0 | 4.0 | 0.00 | 0.00 | 0.00 | 45 | 1013.6 |
| 20260831032013 | 86 | 171 | 2.0 | 4.0 | 0.00 | 0.00 | 0.00 | 45 | 1013.6 |
| 20260831031517 | 86 | 172 | 2.0 | 4.0 | 0.00 | 0.00 | 0.00 | 45 | 1013.6 |
| 20260831031015 | 86 | 179 | 2.0 | 4.0 | 0.00 | 0.00 | 0.00 | 45 | 1013.5 |
| 20260831030517 | 87 | 169 | 1.0 | 3.0 | 0.00 | 0.00 | 0.00 | 45 | 1013.4 |
| 20260831030008 | 87 | 177 | 0.0 | 6.0 | 0.00 | 0.00 | 0.00 | 44 | 1013.4 |
| 20260831025517 | 87 | 175 | 1.0 | 6.0 | 0.00 | 0.00 | 0.00 | 44 | 1013.4 |
| 20260831025010 | 87 | 173 | 2.0 | 4.0 | 0.00 | 0.00 | 0.00 | 45 | 1013.4 |
| 20260831024531 | 87 | 168 | 3.0 | 4.0 | 0.00 | 0.00 | 0.00 | 44 | 1013.3 |
| 20260831024014 | 88 | 169 | 2.0 | 3.0 | 0.00 | 0.00 | 0.00 | 44 | 1013.2 |
| 20260831023511 | 88 | 171 | 0.0 | 3.0 | 0.00 | 0.00 | 0.00 | 43 | 1013.2 |
| 20260831023029 | 88 | 169 | 1.0 | 4.0 | 0.00 | 0.00 | 0.00 | 43 | 1013.2 |
| 20260831022511 | 88 | 169 | 2.0 | 4.0 | 0.00 | 0.00 | 0.00 | 42 | 1013.1 |
| 20260831022007 | 89 | 169 | 2.0 | 3.0 | 0.00 | 0.00 | 0.00 | 42 | 1012.9 |
| 20260831021527 | 89 | 172 | 2.0 | 4.0 | 0.00 | 0.00 | 0.00 | 42 | 1012.9 |
| 20260831021011 | 89 | 171 | 2.0 | 5.0 | 0.00 | 0.00 | 0.00 | 41 | 1012.9 |
| 20260831020516 | 89 | 173 | 2.0 | 6.0 | 0.00 | 0.00 | 0.00 | 41 | 1012.8 |
| 20260831020024 | 89 | 169 | 3.0 | 6.0 | 0.00 | 0.00 | 0.00 | 41 | 1012.7 |
| 20260831015517 | 90 | 166 | 2.0 | 5.0 | 0.00 | 0.00 | 0.00 | 41 | 1012.6 |
| 20260831015016 | 90 | 169 | 2.0 | 7.0 | 0.00 | 0.00 | 0.00 | 40 | 1012.5 |
| 20260831014533 | 90 | 181 | 3.0 | 7.0 | 0.00 | 0.00 | 0.00 | 40 | 1012.5 |
| 20260831014006 | 90 | 171 | 3.0 | 6.0 | 0.00 | 0.00 | 0.00 | 40 | 1012.5 |
| 20260831013517 | 91 | 181 | 3.0 | 6.0 | 0.00 | 0.00 | 0.00 | 40 | 1012.4 |
| 20260831013020 | 91 | 177 | 2.0 | 5.0 | 0.00 | 0.00 | 0.00 | 39 | 1012.4 |
| 20260831012517 | 91 | 174 | 2.0 | 4.0 | 0.00 | 0.00 | 0.00 | 39 | 1012.4 |
| 20260831012013 | 92 | 173 | 2.0 | 4.0 | 0.00 | 0.00 | 0.00 | 39 | 1012.4 |
| 20260831011516 | 92 | 171 | 2.0 | 4.0 | 0.00 | 0.00 | 0.00 | 38 | 1012.3 |
| 20260831011003 | 93 | 177 | 1.0 | 4.0 | 0.00 | 0.00 | 0.00 | 38 | 1012.3 |
| 20260831010508 | 93 | 177 | 1.0 | 4.0 | 0.00 | 0.00 | 0.00 | 37 | 1012.3 |
| 20260831010009 | 93 | 172 | 1.0 | 9.0 | 0.00 | 0.00 | 0.00 | 37 | 1012.3 |
| 20260831005505 | 94 | 180 | 1.0 | 9.0 | 0.00 | 0.00 | 0.00 | 36 | 1012.3 |
| 20260831005008 | 94 | 181 | 2.0 | 3.0 | 0.00 | 0.00 | 0.00 | 36 | 1012.3 |
| 20260831004508 | 95 | 191 | 1.0 | 8.0 | 0.00 | 0.00 | 0.00 | 37 | 1012.3 |
| 20260831004008 | 95 | 178 | 1.0 | 8.0 | 0.00 | 0.00 | 0.00 | 35 | 1012.3 |
| 20260831003513 | 95 | 191 | 1.0 | 7.0 | 0.00 | 0.00 | 0.00 | 35 | 1012.3 |
| 20260831003012 | 96 | 203 | 2.0 | 7.0 | 0.00 | 0.00 | 0.00 | 34 | 1012.3 |
| 20260831002507 | 96 | 193 | 3.0 | 6.0 | 0.00 | 0.00 | 0.00 | 34 | 1012.3 |
| 20260831002009 | 96 | 211 | 2.0 | 7.0 | 0.00 | 0.00 | 0.00 | 34 | 1012.3 |
| 20260831001512 | 97 | 194 | 3.0 | 8.0 | 0.00 | 0.00 | 0.00 | 33 | 1012.3 |
| 20260831001010 | 97 | 188 | 3.0 | 8.0 | 0.00 | 0.00 | 0.00 | 33 | 1012.4 |
| 20260831000508 | 98 | 209 | 2.0 | 8.0 | 0.00 | 0.00 | 0.00 | 32 | 1012.3 |
| 20260831000013 | 98 | 208 | 3.0 | 9.0 | 0.00 | 0.00 | 0.00 | 32 | 1012.3 |
| 20260830235509 | 99 | 213 | 4.0 | 9.0 | 0.00 | 0.00 | 0.00 | 31 | 1012.4 |
| 20260830235007 | 99 | 212 | 3.0 | 9.0 | 0.00 | 0.00 | 0.00 | 31 | 1012.4 |
| 20260830234513 | 99 | 233 | 3.0 | 9.0 | 0.00 | 0.00 | 0.00 | 32 | 1012.3 |
| 20260830234010 | 99 | 205 | 4.0 | 9.0 | 0.00 | 0.00 | 0.00 | 31 | 1012.3 |
| 20260830233507 | 100 | 198 | 4.0 | 12.0 | 0.00 | 0.00 | 0.00 | 31 | 1012.3 |
| 20260830233014 | 100 | 219 | 4.0 | 13.0 | 0.00 | 0.00 | 0.00 | 30 | 1012.3 |
| 20260830232508 | 101 | 199 | 3.0 | 13.0 | 0.00 | 0.00 | 0.00 | 30 | 1012.3 |
| 20260830232010 | 101 | 208 | 7.0 | 13.0 | 0.00 | 0.00 | 0.00 | 31 | 1012.2 |
| 20260830231516 | 101 | 199 | 4.0 | 11.0 | 0.00 | 0.00 | 0.00 | 31 | 1012.2 |
| 20260830231008 | 101 | 249 | 4.0 | 12.0 | 0.00 | 0.00 | 0.00 | 32 | 1012.2 |
| 20260830230510 | 101 | 233 | 3.0 | 12.0 | 0.00 | 0.00 | 0.00 | 31 | 1012.2 |
| 20260830230016 | 101 | 193 | 6.0 | 14.0 | 0.00 | 0.00 | 0.00 | 31 | 1012.2 |
| 20260830225509 | 101 | 242 | 4.0 | 14.0 | 0.00 | 0.00 | 0.00 | 30 | 1012.3 |
| 20260830225012 | 102 | 206 | 7.0 | 13.0 | 0.00 | 0.00 | 0.00 | 30 | 1012.3 |
| 20260830224515 | 102 | 194 | 5.0 | 13.0 | 0.00 | 0.00 | 0.00 | 30 | 1012.3 |
| 20260830224012 | 102 | 196 | 6.0 | 13.0 | 0.00 | 0.00 | 0.00 | 30 | 1012.3 |
| 20260830223512 | 102 | 216 | 5.0 | 14.0 | 0.00 | 0.00 | 0.00 | 31 | 1012.4 |
| 20260830223012 | 102 | 202 | 5.0 | 13.0 | 0.00 | 0.00 | 0.00 | 30 | 1012.3 |
| 20260830222512 | 102 | 168 | 7.0 | 13.0 | 0.00 | 0.00 | 0.00 | 29 | 1012.3 |
| 20260830222015 | 102 | 166 | 5.0 | 17.0 | 0.00 | 0.00 | 0.00 | 30 | 1012.4 |
| 20260830221515 | 102 | 252 | 6.0 | 17.0 | 0.00 | 0.00 | 0.00 | 30 | 1012.5 |
| 20260830221011 | 102 | 173 | 4.0 | 15.0 | 0.00 | 0.00 | 0.00 | 30 | 1012.5 |
| 20260830220510 | 102 | 212 | 3.0 | 15.0 | 0.00 | 0.00 | 0.00 | 32 | 1012.5 |
| 20260830220019 | 102 | 270 | 3.0 | 9.0 | 0.00 | 0.00 | 0.00 | 32 | 1012.4 |
| 20260830215515 | 102 | 261 | 3.0 | 12.0 | 0.00 | 0.00 | 0.00 | 30 | 1012.5 |
| 20260830215007 | 102 | 279 | 5.0 | 12.0 | 0.00 | 0.00 | 0.00 | 30 | 1012.5 |
| 20260830214520 | 102 | 214 | 6.0 | 13.0 | 0.00 | 0.00 | 0.00 | 30 | 1012.6 |
| 20260830214010 | 102 | 219 | 9.0 | 13.0 | 0.00 | 0.00 | 0.00 | 31 | 1012.7 |
| 20260830213512 | 102 | 200 | 5.0 | 12.0 | 0.00 | 0.00 | 0.00 | 32 | 1012.7 |
| 20260830213018 | 101 | 210 | 8.0 | 14.0 | 0.00 | 0.00 | 0.00 | 31 | 1012.8 |
| 20260830212508 | 102 | 218 | 3.0 | 14.0 | 0.00 | 0.00 | 0.00 | 31 | 1012.7 |
| 20260830212013 | 102 | 188 | 9.0 | 14.0 | 0.00 | 0.00 | 0.00 | 30 | 1012.8 |
| 20260830211520 | 102 | 228 | 7.0 | 12.0 | 0.00 | 0.00 | 0.00 | 29 | 1012.9 |
| 20260830211010 | 102 | 206 | 3.0 | 13.0 | 0.00 | 0.00 | 0.00 | 31 | 1012.9 |
| 20260830210515 | 102 | 196 | 8.0 | 13.0 | 0.00 | 0.00 | 0.00 | 30 | 1013.0 |
| 20260830210024 | 102 | 218 | 5.0 | 13.0 | 0.00 | 0.00 | 0.00 | 31 | 1012.9 |
| 20260830205513 | 103 | 257 | 7.0 | 13.0 | 0.00 | 0.00 | 0.00 | 31 | 1013.1 |
| 20260830205011 | 102 | 240 | 3.0 | 11.0 | 0.00 | 0.00 | 0.00 | 31 | 1013.1 |
| 20260830204516 | 102 | 239 | 4.0 | 14.0 | 0.00 | 0.00 | 0.00 | 33 | 1013.2 |
| 20260830204012 | 102 | 257 | 7.0 | 14.0 | 0.00 | 0.00 | 0.00 | 31 | 1013.3 |
| 20260830203512 | 101 | 282 | 7.0 | 13.0 | 0.00 | 0.00 | 0.00 | 31 | 1013.4 |
| 20260830203032 | 101 | 294 | 6.0 | 13.0 | 0.00 | 0.00 | 0.00 | 29 | 1013.4 |
| 20260830202514 | 102 | 179 | 7.0 | 13.0 | 0.00 | 0.00 | 0.00 | 31 | 1013.5 |
| 20260830202010 | 102 | 262 | 4.0 | 11.0 | 0.00 | 0.00 | 0.00 | 32 | 1013.5 |
| 20260830201523 | 102 | 262 | 4.0 | 11.0 | 0.00 | 0.00 | 0.00 | 31 | 1013.7 |
| 20260830201014 | 102 | 255 | 6.0 | 12.0 | 0.00 | 0.00 | 0.00 | 31 | 1013.8 |
| 20260830200515 | 102 | 224 | 6.0 | 14.0 | 0.00 | 0.00 | 0.00 | 31 | 1013.8 |
| 20260830200029 | 102 | 225 | 6.0 | 18.0 | 0.00 | 0.00 | 0.00 | 30 | 1013.8 |
| 20260830195514 | 101 | 243 | 5.0 | 18.0 | 0.00 | 0.00 | 0.00 | 33 | 1013.9 |
| 20260830195013 | 101 | 212 | 8.0 | 15.0 | 0.00 | 0.00 | 0.00 | 31 | 1014.1 |
| 20260830194526 | 101 | 243 | 6.0 | 16.0 | 0.00 | 0.00 | 0.00 | 33 | 1014.1 |
| 20260830194013 | 101 | 218 | 6.0 | 16.0 | 0.00 | 0.00 | 0.00 | 34 | 1014.1 |
| 20260830193515 | 101 | 185 | 7.0 | 15.0 | 0.00 | 0.00 | 0.00 | 34 | 1014.1 |
| 20260830193027 | 101 | 202 | 9.0 | 15.0 | 0.00 | 0.00 | 0.00 | 32 | 1014.2 |
| 20260830192511 | 101 | 208 | 4.0 | 14.0 | 0.00 | 0.00 | 0.00 | 34 | 1014.3 |
| 20260830192012 | 101 | 294 | 6.0 | 18.0 | 0.00 | 0.00 | 0.00 | 34 | 1014.2 |
| 20260830191527 | 101 | 294 | 7.0 | 18.0 | 0.00 | 0.00 | 0.00 | 33 | 1014.3 |
| 20260830191017 | 100 | 208 | 6.0 | 15.0 | 0.00 | 0.00 | 0.00 | 35 | 1014.2 |
| 20260830190504 | 100 | 218 | 7.0 | 15.0 | 0.00 | 0.00 | 0.00 | 35 | 1014.3 |
| 20260830190028 | 100 | 234 | 6.0 | 15.0 | 0.00 | 0.00 | 0.00 | 35 | 1014.3 |
| 20260830185507 | 99 | 270 | 6.0 | 15.0 | 0.00 | 0.00 | 0.00 | 35 | 1014.4 |
| 20260830185004 | 100 | 262 | 6.0 | 15.0 | 0.00 | 0.00 | 0.00 | 37 | 1014.4 |
| 20260830184529 | 99 | 214 | 7.0 | 14.0 | 0.00 | 0.00 | 0.00 | 37 | 1014.5 |
| 20260830184007 | 99 | 234 | 7.0 | 14.0 | 0.00 | 0.00 | 0.00 | 37 | 1014.5 |
| 20260830183503 | 99 | 231 | 4.0 | 12.0 | 0.00 | 0.00 | 0.00 | 37 | 1014.6 |
| 20260830183022 | 99 | 215 | 2.0 | 12.0 | 0.00 | 0.00 | 0.00 | 1014.7 | |
| 20260830182504 | 99 | 283 | 3.0 | 11.0 | 0.00 | 0.00 | 0.00 | 1014.7 | |
| 20260830182018 | 99 | 208 | 5.0 | 12.0 | 0.00 | 0.00 | 0.00 | 1014.7 | |
| 20260830181514 | 98 | 227 | 7.0 | 13.0 | 0.00 | 0.00 | 0.00 | 1014.9 | |
| 20260830181004 | 98 | 239 | 6.0 | 13.0 | 0.00 | 0.00 | 0.00 | 43 | 1014.9 |
| 20260830180516 | 98 | 255 | 2.0 | 10.0 | 0.00 | 0.00 | 0.00 | 43 | 1015.0 |
| 20260830180019 | 97 | 225 | 3.0 | 10.0 | 0.00 | 0.00 | 0.00 | 41 | 1015.0 |
| 20260830175503 | 97 | 221 | 4.0 | 11.0 | 0.00 | 0.00 | 0.00 | 43 | 1015.1 |
| 20260830175012 | 97 | 170 | 4.0 | 11.0 | 0.00 | 0.00 | 0.00 | 43 | 1015.1 |
| 20260830174506 | 97 | 196 | 5.0 | 13.0 | 0.00 | 0.00 | 0.00 | 42 | 1015.3 |
| 20260830174014 | 97 | 216 | 8.0 | 16.0 | 0.00 | 0.00 | 0.00 | 42 | 1015.4 |
| 20260830173515 | 97 | 210 | 4.0 | 16.0 | 0.00 | 0.00 | 0.00 | 43 | 1015.5 |
| 20260830173007 | 97 | 200 | 3.0 | 11.0 | 0.00 | 0.00 | 0.00 | 41 | 1015.6 |
| 20260830172515 | 96 | 243 | 5.0 | 12.0 | 0.00 | 0.00 | 0.00 | 43 | 1015.7 |
| 20260830172008 | 96 | 296 | 5.0 | 12.0 | 0.00 | 0.00 | 0.00 | 45 | 1015.7 |
| 20260830171504 | 95 | 218 | 4.0 | 12.0 | 0.00 | 0.00 | 0.00 | 46 | 1015.8 |
| 20260830171009 | 95 | 246 | 5.0 | 16.0 | 0.00 | 0.00 | 0.00 | 44 | 1015.9 |
| 20260830170516 | 95 | 251 | 8.0 | 16.0 | 0.00 | 0.00 | 0.00 | 44 | 1015.9 |
| 20260830170028 | 94 | 220 | 6.0 | 16.0 | 0.00 | 0.00 | 0.00 | 45 | 1015.9 |
| 20260830165509 | 95 | 235 | 6.0 | 14.0 | 0.00 | 0.00 | 0.00 | 44 | 1015.9 |
| 20260830165003 | 94 | 227 | 5.0 | 12.0 | 0.00 | 0.00 | 0.00 | 45 | 1016.0 |
| 20260830164520 | 94 | 202 | 5.0 | 13.0 | 0.00 | 0.00 | 0.00 | 45 | 1016.0 |
| 20260830164011 | 94 | 245 | 7.0 | 13.0 | 0.00 | 0.00 | 0.00 | 45 | 1016.1 |
| 20260830163504 | 94 | 279 | 3.0 | 15.0 | 0.00 | 0.00 | 0.00 | 46 | 1016.0 |
| 20260830163036 | 93 | 262 | 6.0 | 15.0 | 0.00 | 0.00 | 0.00 | 45 | 1016.1 |
| 20260830162506 | 93 | 279 | 4.0 | 11.0 | 0.00 | 0.00 | 0.00 | 47 | 1016.1 |
| 20260830162014 | 92 | 225 | 5.0 | 11.0 | 0.00 | 0.00 | 0.00 | 46 | 1016.1 |
| 20260830161515 | 92 | 199 | 5.0 | 12.0 | 0.00 | 0.00 | 0.00 | 48 | 1016.1 |
| 20260830161004 | 91 | 316 | 6.0 | 12.0 | 0.00 | 0.00 | 0.00 | 46 | 1016.1 |
| 20260830160514 | 92 | 219 | 6.0 | 13.0 | 0.00 | 0.00 | 0.00 | 47 | 1016.1 |
| 20260830160011 | 91 | 200 | 7.0 | 13.0 | 0.00 | 0.00 | 0.00 | 48 | 1016.2 |
| 20260830155509 | 91 | 210 | 7.0 | 13.0 | 0.00 | 0.00 | 0.00 | 48 | 1016.1 |
| 20260830155012 | 90 | 255 | 5.0 | 12.0 | 0.00 | 0.00 | 0.00 | 49 | 1016.1 |
| 20260830154518 | 90 | 219 | 6.0 | 12.0 | 0.00 | 0.00 | 0.00 | 48 | 1016.1 |
| 20260830154015 | 90 | 213 | 5.0 | 14.0 | 0.00 | 0.00 | 0.00 | 49 | 1016.1 |
| 20260830153512 | 89 | 228 | 7.0 | 14.0 | 0.00 | 0.00 | 0.00 | 49 | 1016.1 |
| 20260830153007 | 89 | 223 | 4.0 | 13.0 | 0.00 | 0.00 | 0.00 | 51 | 1016.2 |
| 20260830152515 | 89 | 136 | 7.0 | 12.0 | 0.00 | 0.00 | 0.00 | 51 | 1016.2 |
| 20260830152011 | 88 | 212 | 5.0 | 11.0 | 0.00 | 0.00 | 0.00 | 52 | 1016.3 |
| 20260830151505 | 87 | 206 | 3.0 | 15.0 | 0.00 | 0.00 | 0.00 | 53 | 1016.3 |
| 20260830151013 | 87 | 241 | 5.0 | 15.0 | 0.00 | 0.00 | 0.00 | 54 | 1016.3 |
| 20260830150508 | 86 | 204 | 7.0 | 15.0 | 0.00 | 0.00 | 0.00 | 54 | 1016.4 |
| 20260830150035 | 86 | 204 | 6.0 | 12.0 | 0.00 | 0.00 | 0.00 | 54 | 1016.3 |
| 20260830145512 | 85 | 230 | 5.0 | 12.0 | 0.00 | 0.00 | 0.00 | 54 | 1016.3 |
| 20260830145008 | 85 | 185 | 5.0 | 13.0 | 0.00 | 0.00 | 0.00 | 55 | 1016.3 |
| 20260830144534 | 85 | 262 | 4.0 | 13.0 | 0.00 | 0.00 | 0.00 | 54 | 1016.4 |
| 20260830144009 | 84 | 212 | 7.0 | 11.0 | 0.00 | 0.00 | 0.00 | 55 | 1016.3 |
| 20260830143516 | 83 | 191 | 3.0 | 11.0 | 0.00 | 0.00 | 0.00 | 56 | 1016.3 |
| 20260830143034 | 83 | 230 | 2.0 | 11.0 | 0.00 | 0.00 | 0.00 | 56 | 1016.4 |
| 20260830142510 | 82 | 219 | 2.0 | 11.0 | 0.00 | 0.00 | 0.00 | 57 | 1016.4 |
| 20260830142017 | 82 | 239 | 3.0 | 8.0 | 0.00 | 0.00 | 0.00 | 57 | 1016.5 |
| 20260830141520 | 82 | 205 | 4.0 | 8.0 | 0.00 | 0.00 | 0.00 | 57 | 1016.5 |
| 20260830141007 | 81 | 208 | 4.0 | 8.0 | 0.00 | 0.00 | 0.00 | 56 | 1016.5 |
| 20260830140515 | 81 | 209 | 3.0 | 6.0 | 0.00 | 0.00 | 0.00 | 57 | 1016.5 |
| 20260830140018 | 80 | 171 | 3.0 | 8.0 | 0.00 | 0.00 | 0.00 | 58 | 1016.5 |
| 20260830135516 | 80 | 180 | 2.0 | 8.0 | 0.00 | 0.00 | 0.00 | 58 | 1016.6 |
| 20260830135016 | 79 | 177 | 2.0 | 7.0 | 0.00 | 0.00 | 0.00 | 59 | 1016.6 |
| 20260830134517 | 79 | 216 | 3.0 | 7.0 | 0.00 | 0.00 | 0.00 | 60 | 1016.6 |
| 20260830134015 | 78 | 200 | 1.0 | 10.0 | 0.00 | 0.00 | 0.00 | 61 | 1016.6 |
| 20260830133511 | 78 | 183 | 4.0 | 10.0 | 0.00 | 0.00 | 0.00 | 61 | 1016.4 |
| 20260830133011 | 77 | 175 | 3.0 | 8.0 | 0.00 | 0.00 | 0.00 | 62 | 1016.4 |
| 20260830132516 | 76 | 171 | 3.0 | 10.0 | 0.00 | 0.00 | 0.00 | 63 | 1016.4 |
| 20260830132010 | 76 | 183 | 3.0 | 10.0 | 0.00 | 0.00 | 0.00 | 64 | 1016.5 |
| 20260830131535 | 75 | 208 | 4.0 | 10.0 | 0.00 | 0.00 | 0.00 | 64 | 1016.5 |
| 20260830131019 | 75 | 231 | 3.0 | 9.0 | 0.00 | 0.00 | 0.00 | 65 | 1016.5 |
| 20260830130512 | 74 | 171 | 3.0 | 9.0 | 0.00 | 0.00 | 0.00 | 66 | 1016.4 |
| 20260830130030 | 74 | 203 | 2.0 | 7.0 | 0.00 | 0.00 | 0.00 | 66 | 1016.4 |
| 20260830125511 | 74 | 182 | 0.0 | 8.0 | 0.00 | 0.00 | 0.00 | 67 | 1016.3 |
| 20260830125008 | 74 | 180 | 4.0 | 8.0 | 0.00 | 0.00 | 0.00 | 67 | 1016.3 |
| 20260830124538 | 73 | 189 | 4.0 | 7.0 | 0.00 | 0.00 | 0.00 | 67 | 1016.3 |
| 20260830124016 | 73 | 152 | 1.0 | 7.0 | 0.00 | 0.00 | 0.00 | 68 | 1016.3 |
| 20260830123515 | 73 | 178 | 2.0 | 7.0 | 0.00 | 0.00 | 0.00 | 68 | 1016.3 |
| 20260830123027 | 73 | 183 | 2.0 | 6.0 | 0.00 | 0.00 | 0.00 | 68 | 1016.2 |
| 20260830122513 | 73 | 168 | 2.0 | 6.0 | 0.00 | 0.00 | 0.00 | 69 | 1016.2 |
| 20260830122016 | 73 | 175 | 1.0 | 6.0 | 0.00 | 0.00 | 0.00 | 68 | 1016.1 |
| 20260830121523 | 73 | 174 | 2.0 | 6.0 | 0.00 | 0.00 | 0.00 | 69 | 1016.1 |
| 20260830121007 | 73 | 167 | 3.0 | 6.0 | 0.00 | 0.00 | 0.00 | 69 | 1016.0 |
| 20260830120516 | 73 | 182 | 2.0 | 4.0 | 0.00 | 0.00 | 0.00 | 69 | 1016.0 |
| 20260830120030 | 73 | 202 | 0.0 | 8.0 | 0.00 | 0.00 | 0.00 | 69 | 1016.1 |
| 20260830115515 | 73 | 223 | 0.0 | 8.0 | 0.00 | 0.00 | 0.00 | 68 | 1016.0 |
| 20260830115018 | 73 | 223 | 1.0 | 6.0 | 0.00 | 0.00 | 0.00 | 68 | 1016.0 |
| 20260830114516 | 73 | 181 | 1.0 | 4.0 | 0.00 | 0.00 | 0.00 | 68 | 1016.0 |
| 20260830114015 | 73 | 205 | 1.0 | 7.0 | 0.00 | 0.00 | 0.00 | 68 | 1015.9 |
| 20260830113512 | 73 | 180 | 2.0 | 7.0 | 0.00 | 0.00 | 0.00 | 68 | 1015.9 |
| 20260830113015 | 73 | 177 | 3.0 | 7.0 | 0.00 | 0.00 | 0.00 | 68 | 1015.9 |
| 20260830112517 | 73 | 184 | 2.0 | 6.0 | 0.00 | 0.00 | 0.00 | 68 | 1015.9 |
| 20260830112012 | 73 | 184 | 2.0 | 6.0 | 0.00 | 0.00 | 0.00 | 68 | 1015.9 |
| 20260830111534 | 73 | 179 | 2.0 | 4.0 | 0.00 | 0.00 | 0.00 | 68 | 1016.0 |
| 20260830111015 | 73 | 185 | 1.0 | 3.0 | 0.00 | 0.00 | 0.00 | 68 | 1015.9 |
| 20260830110514 | 73 | 185 | 0.0 | 4.0 | 0.00 | 0.00 | 0.00 | 68 | 1015.8 |